Regional Weather Roundup
Issued by NWS

Home | Current Version | Previous Version | Graphics & Text | Print | Product List | Glossary On
Versions: 1 2 3 4 5 6 7 8 9 10 11 12 13 14 15 16 17 18 19 20 21 22 23 24 25 26 27 28 29 30 31 32 33 34 35 36 37 38 39 40 41 42 43 44 45 46 47 48 49 50
000
ASUS43 KLOT 171410
RWRIL

ILLINOIS REGIONAL WEATHER ROUNDUP
NATIONAL WEATHER SERVICE CHICAGO/ROMEOVILLE IL
800 AM CST WED DEC 17 2014

NOTE: "FAIR" INDICATES FEW OR NO CLOUDS BELOW 12,000 FEET WITH NO
SIGNIFICANT WEATHER AND/OR OBSTRUCTIONS TO VISIBILITY.

* THESE STATIONS ARE NOT UNDER NWS QUALITY CONTROL. THEY ALSO MAY NOT
  REPORT WEATHER SUCH AS PRECIPITATION OR FOG.

ILZ001-002-007-009-015-016-024-171500-
NORTHWEST ILLINOIS

CITY           SKY/WX    TMP DP  RH WIND       PRES   REMARKS
MOLINE         CLOUDY    22  16  78 NW14      30.30S WCI   9
STERLING*      CLOUDY    25  16  68 NW13      30.26F WCI  13
SAVANNA*       CLOUDY    24  17  74 NW9       30.27S WCI  14
$$

ILZ003-004-008-010-011-017-018-171500-
NORTH CENTRAL ILLINOIS

CITY           SKY/WX    TMP DP  RH WIND       PRES   REMARKS
ROCKFORD       CLOUDY    25  16  68 NW13      30.25S WCI  14
FREEPORT*      CLOUDY    23  17  78 W10       30.26S WCI  12
ROCHELLE*      CLOUDY    24  19  80 W12       30.25S WCI  13
DE KALB*       CLOUDY    23  16  74 NW12      30.23S WCI  11
PERU*          CLOUDY    25  19  80 NW13      30.28S WCI  13
$$

ILZ005-006-012>014-019>023-171500-
NORTHEAST ILLINOIS

CITY           SKY/WX    TMP DP  RH WIND       PRES   REMARKS
CHICAGO-OHARE  CLOUDY    25  17  72 W15       30.22R WCI  13
CHICAGO-MIDWAY CLOUDY    26  19  74 W13       30.23R WCI  15
AURORA         CLOUDY    25  17  72 W14       30.24S WCI  13
LANSING*       CLOUDY    25  20  81 W13       30.23S WCI  14
JOLIET*        CLOUDY    24  18  77 NW7G17    30.25S WCI  16
WAUKEGAN       CLOUDY    25  16  68 W10G18    30.19S WCI  15
DUPAGE AIRPORT CLOUDY    24  17  74 W12       30.22S WCI  13
KANKAKEE*      CLOUDY    26  21  83 NW14      30.27R WCI  14
WHEELING       CLOUDY    25  17  72 W10       30.24R WCI  15
MORRIS*        CLOUDY    25  21  85 NW10G18   30.25S WCI  15
ROMEOVILLE*    CLOUDY    24  20  82 NW10      30.24S WCI  14
NORTHERLY ISL    N/A     26  20  77 W8          N/A  WCI  18
$$

LMZ740>746-171500-
SOUTHERN LAKE MICHIGAN

STATION/POSITION SKY/WX   TEMP    WIND        PRES    VSBY  WAVE
                          AIR SEA DIR/SP/G                  HT/PER
                          (F)     (DEG/KT/KT) (MB)    (MI)  (FT/S)
WAUKEGAN HARBOR            26     290/  7/ 15   N/A
HARRISON CRIB              25     270/ 17/ 21   N/A
BURNHAM HARBOR             26     280/  5/ 14   N/A
CALUMET HARBOR             25     260/ 10/ 15 1022.4S
$$

ILZ025>027-034>036-040-047-049-050-058-095>099-171500-
WEST-CENTRAL ILLINOIS

CITY           SKY/WX    TMP DP  RH WIND       PRES   REMARKS
QUINCY         CLOUDY    22  17  81 NW9       30.33R WCI  12
GALESBURG*     CLOUDY    20  16  85 NW8       30.31S WCI  10
MACOMB*        CLOUDY    19  17  88 W12       30.36R WCI   7
JACKSONVILLE*  CLOUDY    26  20  78 NW9       30.34R WCI  17
PITTSFIELD*    CLOUDY    27  22  79 NW6       30.34R WCI  21
$$

ILZ028>032-037-038-041>044-048-051>054-059>061-171500-
CENTRAL ILLINOIS

CITY           SKY/WX    TMP DP  RH WIND       PRES   REMARKS
PONTIAC        CLOUDY    24  20  83 W14       30.29S WCI  12
BLOOMINGTON    CLOUDY    20  17  88 W9        30.30R WCI   9
DECATUR        CLOUDY    23  18  81 NW9       30.32R WCI  13
PEORIA         CLOUDY    22  14  71 NW9       30.31F WCI  12
LACON*         CLOUDY    22  16  77 W8G17     30.29F WCI  13
LINCOLN*       CLOUDY    23  18  83 NW6       30.34S WCI  15
SPRINGFIELD    CLOUDY    23  17  78 NW9       30.33S WCI  13
TAYLORVILLE    CLOUDY    27  21  80 NW8       30.33R WCI  18
$$

ILZ033-039-045-046-055>057-062-063-171500-
EAST-CENTRAL ILLINOIS

CITY           SKY/WX    TMP DP  RH WIND       PRES   REMARKS
CHAMPAIGN      CLOUDY    22  18  85 W13       30.30R FOG     WCI  10
DANVILLE*      CLOUDY    23  20  88 W12G17    30.26R WCI  11
RANTOUL*       CLOUDY    24  20  86 W12       30.29R WCI  13
MATTOON        CLOUDY    24  19  81 W15       30.31R WCI  11
PARIS*         CLOUDY    25  23  90 W13       30.32R FOG     WCI  14
$$

ILZ079-100>102-171500-
SOUTHWEST ILLINOIS

CITY           SKY/WX    TMP DP  RH WIND       PRES   REMARKS
BELLEVILLE     CLOUDY    31  24  76 NW5       30.32F WCI  26
CAHOKIA*       MOCLDY    31  24  75 NW6       30.33F WCI  25
SPARTA*        CLOUDY    29  24  79 NW3       30.34S
$$

ILZ064>066-069>071-074>076-080>082-084>086-088>090-092>094-171500-
SOUTH-CENTRAL ILLINOIS

CITY           SKY/WX    TMP DP  RH WIND       PRES   REMARKS
CARBONDALE     CLOUDY    31  23  72 N6        30.33F WCI  25
CAIRO*         CLOUDY    33  27  77 N5        30.33F WCI  29
EFFINGHAM*     CLOUDY    29  22  75 W8        30.34R WCI  21
MARION         CLOUDY    32  25  74 NW9       30.34S WCI  24
MT. VERNON     CLOUDY    30  21  69 NW5       30.33F WCI  25
CENTRALIA*     CLOUDY    30  24  77 N7        30.32F WCI  23
SALEM*         CLOUDY    32  25  76 NW7       30.33S WCI  25
METROPOLIS*    CLOUDY    32  27  81 N6        30.33S WCI  26
$$

ILZ067-068-072-073-078-083-087-091-171500-
SOUTHEAST ILLINOIS

CITY           SKY/WX    TMP DP  RH WIND       PRES   REMARKS
LAWRENCEVILLE  CLOUDY    29  22  75 NW15      30.34R WCI  18
FLORA*         MOCLDY    29  24  79 NW5       30.34S WCI  24
FAIRFIELD*     CLOUDY    31  24  77 NW3       30.32S
HARRISBURG*    CLOUDY    31  25  78 NW6       30.35S WCI  26
ROBINSON*      CLOUDY    28  24  84 NW7       30.34R WCI  21
CARMI*         CLOUDY    32  28  82 W9        30.34R WCI  25
$$

ABBREVIATIONS USED IN REMARKS
   TC - TEMPERATURE IN CELSIUS
  WCI - WIND CHILL INDEX
   HX - HEAT INDEX
  VSB - VISIBILITY
$$



USA.gov is the U.S. government's official web portal to all federal, state and local government web resources and services.